TIANWANG 1B (TW-1B)
1 40927U 15051C   18175.07806863  .00007206  00000-0  13986-3 0  9999
2 40927  97.1913 217.2110 0007727 262.7514 181.6108 15.47928001154280
TIANWANG 1A (TW-1A)
1 40928U 15051D   18174.83253382 +.00002435 +00000-0 +65608-4 0  9993
2 40928 097.1849 208.6898 0010282 303.2828 110.8509 15.38751003153807
LAPAN A2
1 40931U 15052B   18174.27250004 +.00000631 +00000-0 -12290-5 0  9991
2 40931 005.9988 106.7320 0013455 091.5031 268.6731 14.76577849147906
LQSAT
1 40958U 15057A   18174.82239952  .00000008  00000-0  89545-5 0  9999
2 40958  97.9396 247.8179 0017492 319.4167  40.5725 14.73035314145827
CHUBUSAT 2
1 41338U 16012B   18174.63556408 +.00000314 +00000-0 +17778-4 0  9999
2 41338 031.0031 272.6803 0013714 137.2219 222.9485 14.99988590128801
CHUBUSAT 3
1 41339U 16012C   18174.64850974  .00000297  00000-0  16401-4 0  9998
2 41339  31.0113 271.1827 0013414 144.3088 215.8447 15.00175692128794
OUFTI-1
1 41458U 16025C   18174.88863490 +.00001665 +00000-0 +89563-4 0  9996
2 41458 098.1364 238.0973 0171427 124.9641 236.7785 15.04693346118454
E-STAR-2
1 41459U 16025D   18174.76369061 +.00001821 +00000-0 +97914-4 0  9992
2 41459 098.1375 237.8026 0172525 126.1644 235.5669 15.04426228118417
AAUSAT 4
1 41460U 16025E   18174.73604755  .00002538  00000-0  13373-3 0  9995
2 41460  98.1263 238.2817 0162870 122.1150 239.6013 15.05860382118476
NUSAT 1
1 41557U 16033B   18174.91750664 +.00001573 +00000-0 +60120-4 0  9993
2 41557 097.4376 259.1210 0015738 135.1854 225.0659 15.28025276115184
BEESAT 4
1 41619U 16040W   18174.90588227 +.00001504 +00000-0 +68555-4 0  9997
2 41619 097.4146 237.9598 0011027 198.6769 161.4065 15.22145896099110
PRATHAM
1 41783U 16059A   18174.63504608  .00000050  00000-0  19011-4 0  9998
2 41783  98.1170 236.0909 0034948  76.2025 284.3062 14.62928284 92901
ALSAT 1N
1 41789U 16059G   18174.86032266  .00000076  00000-0  23456-4 0  9991
2 41789  98.1183 237.5488 0029653  67.6443 292.7884 14.64161079 92991
NAYIF 1
1 42017U 17008BX  18174.85717681  .00001648  00000-0  70034-4 0  9991
2 42017  97.4477 239.8750 0006495  12.5656 347.5742 15.24468597 75080
LILACSAT-1
1 42725U 98067ME  18174.92352187 +.00030712 +00000-0 +25713-3 0  9992
2 42725 051.6357 323.7387 0004336 257.5640 102.4872 15.69692137061591
MAX VALIER SAT
1 42778U 17036P   18175.15279841  .00001127  00000-0  53339-4 0  9992
2 42778  97.4028 234.7502 0013956  51.2136 309.0344 15.21327414 55569
